Flight Track Log - Related Links

Times and Time Zones

All times are in EST time to prevent confusion due to time zone crossing. See the N690TW flight status page for this flight to view local times or setup timezone preferences in your user account.

Time Position Orientation Groundspeed Altitude Reporting Facility
EST Latitude Longitude Course Direction KTS MPH feet Rate Location/Type
Sun 22:58:12 33.5333 -112.2833 18° North 184 212 1,400  Level Phoenix TRACON
Sun 22:59:21 33.5831 -112.2642 18° North 161 185 3,300 1,546 Climbing Albuquerque Center
Sun 22:59:49 33.5950 -112.2403 59° Northeast 167 192 3,900 500 Climbing Albuquerque Center
Sun 23:00:21 33.6103 -112.2139 55° Northeast 200 230 3,800 393 Descending Albuquerque Center
Sun 23:00:50 33.6342 -112.1947 34° Northeast 202 232 4,300 1,180 Climbing Albuquerque Center
Sun 23:01:22 33.6658 -112.2022 349° North 209 241 5,000 1,279 Climbing Albuquerque Center
Sun 23:01:51 33.6883 -112.2053 354° North 197 227 5,600 1,279 Climbing Albuquerque Center
Sun 23:02:23 33.7186 -112.2117 350° North 199 229 6,300 1,475 Climbing Albuquerque Center
Sun 23:02:52 33.7425 -112.2175 349° North 198 228 7,100 1,700 Climbing Albuquerque Center
Sun 23:03:23 33.7731 -112.2283 344° North 195 224 8,000 1,574 Climbing Albuquerque Center
Sun 23:03:53 33.7958 -112.2322 352° North 197 227 8,700 1,574 Climbing Albuquerque Center
Sun 23:04:24 33.8247 -112.2431 343° North 196 226 9,600 1,574 Climbing Albuquerque Center
Sun 23:04:54 33.8497 -112.2467 353° North 198 228 10,300 1,700 Climbing Albuquerque Center
Sun 23:05:24 33.8806 -112.2569 345° North 197 227 11,300 1,574 Climbing Albuquerque Center
Sun 23:05:55 33.9025 -112.2611 351° North 195 224 11,900 1,475 Climbing Albuquerque Center
Sun 23:06:25 33.9342 -112.2714 345° North 199 229 12,800 1,065 Climbing Albuquerque Center
Sun 23:06:57 33.9581 -112.2772 349° North 204 235 13,000 197 Climbing Albuquerque Center
Sun 23:07:26 33.9992 -112.2881 348° North 238 274 13,000  Level Albuquerque Center
Sun 23:07:58 34.0253 -112.2947 348° North 241 277 13,000 300 Level Albuquerque Center
Sun 23:08:26 34.0644 -112.3072 345° North 264 304 13,300 885 Climbing Albuquerque Center
Sun 23:08:59 34.0944 -112.3133 350° North 253 291 13,900 1,377 Climbing Albuquerque Center
Sun 23:09:27 34.1333 -112.3228 349° North 239 275 14,700 1,377 Climbing Albuquerque Center
Sun 23:10:00 34.1572 -112.3303 345° North 234 269 15,300 1,213 Climbing Albuquerque Center
Sun 23:11:01 34.2131 -112.3022 23° Northeast 235 270 16,600 1,230 Climbing Albuquerque Center
Sun 23:12:02 34.2594 -112.2483 44° Northeast 233 268 17,800 1,328 Climbing Albuquerque Center
Sun 23:13:03 34.3042 -112.1947 45° Northeast 228 262 19,300 1,623 Climbing Albuquerque Center
Sun 23:14:04 34.3583 -112.1303 44° Northeast 227 261 21,100 1,623 Climbing Albuquerque Center
Sun 23:15:05 34.4050 -112.0758 44° Northeast 230 265 22,600 1,512 Climbing Albuquerque Center
Sun 23:16:07 34.4519 -112.0186 45° Northeast 236 272 24,200 1,463 Climbing Albuquerque Center
Sun 23:17:08 34.4989 -111.9628 44° Northeast 236 272 25,600 1,230 Climbing Albuquerque Center
Sun 23:18:09 34.5467 -111.9058 44° Northeast 238 274 26,700 1,082 Climbing Albuquerque Center
Sun 23:19:10 34.5956 -111.8469 45° Northeast 244 281 27,800 1,082 Climbing Albuquerque Center
Sun 23:20:11 34.6461 -111.7858 45° Northeast 252 290 28,900 934 Climbing Albuquerque Center
Sun 23:21:12 34.6972 -111.7233 45° Northeast 257 296 29,700 836 Climbing Albuquerque Center
Sun 23:22:13 34.7494 -111.6600 45° Northeast 263 303 30,600 780 Climbing Albuquerque Center
Sun 23:23:15 34.8014 -111.5956 46° Northeast 266 306 31,300 683 Climbing Albuquerque Center
Sun 23:24:16 34.8558 -111.5311 44° Northeast 269 310 32,000 689 Climbing Albuquerque Center
Sun 23:25:17 34.9086 -111.4656 46° Northeast 272 313 32,700 492 Climbing Albuquerque Center
Sun 23:26:18 34.9728 -111.3872 45° Northeast 271 312 33,000 148 Climbing Albuquerque Center
Sun 23:27:19 35.0297 -111.3197 44° Northeast 281 323 33,000  Level Albuquerque Center
Sun 23:28:20 35.0858 -111.2481 46° Northeast 288 331 33,000  Level Albuquerque Center
Sun 23:29:22 35.1436 -111.1772 45° Northeast 293 337 33,000  Level Albuquerque Center
Sun 23:30:23 35.2022 -111.1061 45° Northeast 295 339 33,000  Level Albuquerque Center
Sun 23:31:24 35.2639 -111.0281 46° Northeast 297 342 33,000  Level Albuquerque Center
Sun 23:32:25 35.3189 -110.9603 45° Northeast 294 338 33,000  Level Albuquerque Center
Sun 23:33:26 35.3847 -110.8797 45° Northeast 298 343 33,000  Level Albuquerque Center
Sun 23:34:28 35.4411 -110.8089 46° Northeast 302 348 33,000  Level Albuquerque Center
Sun 23:35:29 35.4972 -110.7397 45° Northeast 300 345 33,000  Level Albuquerque Center
Sun 23:36:30 35.5622 -110.6586 45° Northeast 298 343 33,000  Level Albuquerque Center
Sun 23:37:31 35.6178 -110.5900 45° Northeast 297 342 33,000  Level Albuquerque Center
Sun 23:38:32 35.6803 -110.5094 46° Northeast 293 337 33,000  Level Albuquerque Center
Sun 23:39:34 35.7356 -110.4411 45° Northeast 294 338 33,000  Level Albuquerque Center
Sun 23:40:35 35.7914 -110.3714 45° Northeast 296 341 33,000  Level Albuquerque Center
Sun 23:41:36 35.8556 -110.2900 46° Northeast 297 342 33,000  Level Albuquerque Center
Sun 23:42:37 35.9114 -110.2208 45° Northeast 297 342 33,000  Level Albuquerque Center
Sun 23:43:38 35.9656 -110.1519 46° Northeast 294 338 33,000  Level Albuquerque Center
Sun 23:44:30 36.0194 -110.0833 46° Northeast 295 339 33,000  Level Denver Center
Sun 23:45:31 36.0739 -110.0142 46° Northeast 293 337 33,000  Level Denver Center
Sun 23:46:32 36.1392 -109.9331 45° Northeast 295 339 33,000  Level Denver Center
Sun 23:47:33 36.1928 -109.8628 47° Northeast 295 339 33,000  Level Denver Center
Sun 23:48:34 36.2467 -109.7933 46° Northeast 293 337 33,000  Level Denver Center
Sun 23:49:35 36.3100 -109.7125 46° Northeast 292 336 33,000  Level Denver Center
Sun 23:50:36 36.3644 -109.6422 46° Northeast 293 337 33,000  Level Denver Center
Sun 23:51:37 36.4172 -109.5736 46° Northeast 289 333 33,000  Level Denver Center
Sun 23:52:39 36.4814 -109.4906 46° Northeast 297 342 33,000  Level Denver Center
Sun 23:53:40 36.5356 -109.4214 46° Northeast 293 337 33,000  Level Denver Center
Sun 23:54:41 36.5903 -109.3500 46° Northeast 296 341 33,000  Level Denver Center
Sun 23:55:42 36.6556 -109.2658 46° Northeast 299 344 33,000  Level Denver Center
Sun 23:56:43 36.7103 -109.1944 46° Northeast 298 343 33,000  Level Denver Center
Sun 23:57:44 36.7650 -109.1222 47° Northeast 299 344 33,000  Level Denver Center
Sun 23:58:45 36.8297 -109.0381 46° Northeast 300 345 33,000  Level Denver Center
Sun 23:59:45 36.8842 -108.9658 47° Northeast 298 343 33,000  Level Denver Center
Mon 00:00:46 36.9394 -108.8931 46° Northeast 300 345 33,000  Level Denver Center
Mon 00:01:47 37.0025 -108.8089 47° Northeast 297 342 33,000  Level Denver Center
Mon 00:02:48 37.0569 -108.7381 46° Northeast 296 341 33,000  Level Denver Center
Mon 00:03:49 37.1122 -108.6631 47° Northeast 302 348 33,000  Level Denver Center
Mon 00:04:50 37.1750 -108.5792 47° Northeast 298 343 33,000  Level Denver Center
Mon 00:05:51 37.2297 -108.5086 46° Northeast 295 339 33,000  Level Denver Center
Mon 00:06:52 37.2925 -108.4256 46° Northeast 294 338 33,000  Level Denver Center
Mon 00:07:53 37.3469 -108.3533 47° Northeast 296 341 33,000  Level Denver Center
Mon 00:08:54 37.4006 -108.2794 48° Northeast 296 341 33,000  Level Denver Center
Mon 00:09:55 37.4636 -108.1942 47° Northeast 299 344 33,000  Level Denver Center
Mon 00:10:56 37.5181 -108.1214 47° Northeast 297 342 33,000  Level Denver Center
Mon 00:11:57 37.5717 -108.0469 48° Northeast 299 344 33,000  Level Denver Center
Mon 00:12:58 37.6342 -107.9619 47° Northeast 298 343 33,000  Level Denver Center
Mon 00:13:59 37.6883 -107.8889 47° Northeast 297 342 33,000  Level Denver Center
Mon 00:15:00 37.7422 -107.8186 46° Northeast 292 336 33,000  Level Denver Center
Mon 00:16:01 37.8036 -107.7333 48° Northeast 292 336 33,000  Level Denver Center
Mon 00:17:02 37.8572 -107.6603 47° Northeast 294 338 33,000  Level Denver Center
Mon 00:18:03 37.9108 -107.5861 47° Northeast 298 343 33,000  Level Denver Center
Mon 00:19:04 37.9728 -107.5006 47° Northeast 295 339 33,000  Level Denver Center
Mon 00:20:05 38.0264 -107.4286 47° Northeast 294 338 33,000  Level Denver Center
Mon 00:21:06 38.0856 -107.3458 48° Northeast 295 339 33,000  Level Denver Center
Mon 00:22:07 38.1375 -107.2736 48° Northeast 291 335 33,000  Level Denver Center
Mon 00:23:08 38.1978 -107.1881 48° Northeast 291 335 33,000  Level Denver Center
Mon 00:24:09 38.2433 -107.1261 47° Northeast 288 331 33,000  Level Denver Center
Mon 00:25:10 38.2972 -107.0519 47° Northeast 286 329 33,000  Level Denver Center
Mon 00:26:10 38.3500 -106.9772 48° Northeast 285 328 33,000  Level Denver Center
Mon 00:27:11 38.4044 -106.9025 47° Northeast 287 330 33,000  Level Denver Center
Mon 00:28:12 38.4667 -106.8150 48° Northeast 281 323 33,000  Level Denver Center
Mon 00:29:13 38.5192 -106.7400 48° Northeast 282 325 33,000  Level Denver Center
Mon 00:30:14 38.5714 -106.6664 48° Northeast 281 323 33,000  Level Denver Center
Mon 00:31:15 38.6233 -106.5925 48° Northeast 281 323 33,000 -492 Level Denver Center
Mon 00:32:16 38.6758 -106.5181 48° Northeast 283 326 32,000 -1,033 Descending Denver Center
Mon 00:33:17 38.7278 -106.4436 48° Northeast 281 323 30,900 -1,082 Descending Denver Center
Mon 00:34:18 38.7819 -106.3658 48° Northeast 290 334 29,800 -1,082 Descending Denver Center
Mon 00:35:19 38.8369 -106.2875 48° Northeast 295 339 28,700 -1,131 Descending Denver Center
Mon 00:36:20 38.8942 -106.2047 48° Northeast 297 342 27,500 -1,240 Descending Denver Center
Mon 00:37:20 38.9531 -106.1192 48° Northeast 299 344 26,200 -1,190 Descending Denver Center
Mon 00:38:21 39.0086 -106.0400 48° Northeast 299 344 25,100 -1,131 Descending Denver Center
Mon 00:39:22 39.0644 -105.9606 48° Northeast 300 345 23,900 -1,180 Descending Denver Center
Mon 00:40:23 39.1208 -105.8783 49° Northeast 305 351 22,700 -1,131 Descending Denver Center
Mon 00:41:24 39.1764 -105.7975 48° Northeast 303 349 21,600 -1,289 Descending Denver Center
Mon 00:42:24 39.2319 -105.7175 48° Northeast 300 345 20,100 -1,289 Descending Denver Center
Mon 00:43:25 39.2856 -105.6397 48° Northeast 292 336 19,000 -1,082 Descending Denver Center
Mon 00:44:26 39.3389 -105.5619 48° Northeast 290 334 17,900 -934 Descending Denver Center
Mon 00:45:27 39.3917 -105.4847 48° Northeast 289 333 17,100 -942 Descending Denver Center
Mon 00:46:27 39.4403 -105.4042 52° Northeast 266 306 16,000 -1,140 Descending Denver Center
Mon 00:47:28 39.4844 -105.3294 53° Northeast 246 283 14,800 -1,082 Descending Denver Center
Mon 00:48:29 39.5242 -105.2608 53° Northeast 239 275 13,800 -1,041 Descending Denver Center
Mon 00:49:29 39.5650 -105.1906 53° Northeast 245 282 12,700 -1,041 Descending Denver Center
Mon 00:50:30 39.6044 -105.1208 54° Northeast 241 277 11,700 -787 Descending Denver Center
Mon 00:51:31 39.6447 -105.0542 52° Northeast 236 272 11,100 -934 Descending Denver Center
Mon 00:52:32 39.6944 -104.9992 40° Northeast 242 278 9,800 -1,488 Descending Denver Center
Mon 00:53:32 39.7600 -104.9983 North 235 270 8,100 -1,339 Descending Denver Center
Mon 00:54:33 39.8167 -105.0128 349° North 211 243 7,100 -984 Descending Denver Center

Login

Don't have an account? Register now (free) for customized features, flight alerts, and more!